Terug naar catalogus

STARLINK-34508

ActiefCommunicatieVLEO
NORAD 64601·PAYLOAD·🇺🇸 United States

Gelanceerd Jun 25, 2025 vanaf Cape Canaveral Space Force Station

Loading…

Volgende Passages (komende 24 uur)

TLE

VersSource: CelesTrak SupGP

Epoch: Sep 15, 2026, 02:55 UTC

1 64601C 25137H   26258.12201389 -.00041385  00000+0 -12228-2 0  2581
2 64601  53.1595 174.5912 0001310  86.7365  87.9744 15.34410260    12

Volg STARLINK-34508 in realtime met AllMySat

Download on the App Store